Flag for Zimbabwe Weather past 2 weeks in Harare, Zimbabwe

Now
55 °F

Passing clouds.


Feels Like: 53 °F
Forecast: 43 / 70 °F
Wind: 8 mph from Southeast

Location: Harare Kutsaga Airport

Current Time: Aug 1, 2015 at 5:59:01 AM

Latest Report: Aug 1, 2015 at 5:00 AM


Visibility: N/A

Pressure: 30.27 "Hg (25.34 "Hg at 1490m altitude)

Humidity: 28%

Dew point: 23 °F

Location of HarareLocation

Historic Weather in Harare — Graph

°F

Harare temperature yesterday

Maximum temperature yesterday: 81 °F (at 2:00 PM)
Minimum temperature yesterday: 52 °F (at 6:00 AM)
Average temperature yesterday: 68 °F

Past Weeks' High & Low Weather Summary

 TemperatureHumidityPressure
High81 °F (Jul 25, 3:00 PM)100% (Jul 18, 5:00 AM)30.42 "Hg (Jul 18, 5:00 AM)
Low43 °F (Jul 18, 5:00 AM)17% (Aug 1, 3:00 AM)30.15 "Hg (Jul 25, 2:00 PM)
Average62 °F55%30.27 "Hg
* Reported Jul 17 3:00 AM — Aug 1 3:00 AM, Harare, Weather by CustomWeather, © 2015

Note: Actual official high and low records may vary slightly from our data, if they occured in-between our weather recording intervals... More about our weather records

Advertising

Harare weather history for previous 24 hours

 ConditionsComfort  
Time TempWeatherWind HumidityBarometerVisibility
3:00 AM
Sat, Aug 1
57 °FClear.12 mph17%30.24 "Hg10 mi
2:00 AM57 °FPassing clouds.7 mph18%30.27 "HgN/A
1:00 AM57 °FPassing clouds.7 mph21%30.30 "HgN/A
11:00 PM
Fri, Jul 31
61 °FClear.9 mph23%30.30 "Hg10 mi
9:00 PM63 °FPassing clouds.7 mph37%30.30 "HgN/A
8:00 PM66 °FPassing clouds.7 mph35%30.27 "HgN/A
7:00 PM68 °FClear.6 mph38%30.24 "Hg10 mi
6:00 PM72 °FClear.6 mph31%30.21 "Hg10 mi
5:00 PM79 °FSunny.9 mph23%30.18 "Hg10 mi
4:00 PM81 °FPassing clouds.10 mph23%30.18 "HgN/A
3:00 PM81 °FPassing clouds.14 mph21%30.18 "HgN/A
2:00 PM81 °FPassing clouds.13 mph23%30.21 "HgN/A
1:00 PM79 °FPassing clouds.13 mph24%30.21 "HgN/A
12:00 PM79 °FPassing clouds.9 mph28%30.24 "HgN/A
11:00 AM75 °FPassing clouds.10 mph29%30.27 "HgN/A
10:00 AM73 °FPassing clouds.9 mph36%30.27 "HgN/A
9:00 AM70 °FSunny.7 mph43%30.24 "Hg10 mi
8:00 AM64 °FSunny.7 mph56%30.21 "Hg10 mi
7:00 AM55 °FSunny.7 mph72%30.21 "Hg10 mi
6:00 AM52 °FClear.No wind77%30.18 "Hg10 mi
5:00 AM54 °FClear.7 mph77%30.18 "Hg10 mi
Weather by CustomWeather, © 2015

See weather overviewHow to use our weather pages